Content
SEND FEEDBACK

Daily
Averages
Monthly
Summary
United States of America

UMATAC, GUAM


Home > North America > United States > Guam
Elevation: 190 feet     Latitude: 13 17N     Longitude: 144 40E

WEATHER
 
SELECT A DAY
Number of Records: 342,219;   Date Range: 1/1/95 - 8/28/14
 
SHARE

PRINT THIS DATA

[ ← Previous Day ]
WEATHER ALMANAC - APRIL 18, 2014
[ Next Day → ]
[ °C ]   °F
Weather ElementAverageHighLow
Temperature80.7 °F86 °F (12:28 pm)78.3 °F (3:58 am)
Dewpoint76.8 °F78.8 °F (9:29 pm)74.8 °F (6:58 am)
Humidity88.1 %94 % (1:18 am)74 % (12:28 pm)
Barometer29.80 in29.85 in (9:23 am)29.73 in (3:58 pm)
Wind Speed13.2 mph20.7 mph (6:24 am)
Wind Gust19.6 mph (12:38 pm)
Weather ElementAverage
Visibility10 mi
Wind DirectionENE (67.9 °)

Weather ElementTotal
Precipitation0.01 in
Cooling Degree Days17.2 (Base 65)
Growing Degree Days32.2 (Base 50)
Averaged from 99 records on April 18, 2014
WEATHER CONDITIONS BREAKOUT
WIND DIRECTION BREAKOUT
WEATHER BY HOUR - APRIL 18, 2014
[ °C ]   °F
Local TimeTemperatureDewpointHumidityBarometerVisibilityWind DirectionWind SpeedGust SpeedPrecipitationEventsConditions
12:53 AM78.8 °F75.2 °F89 %29.83 in10.0 miENE (60°)13.8 mphMostly Cloudy
12:58 AM79.2 °F75.9 °F90 %29.81 in10.0 miENE (70°)12.7 mphMostly Cloudy
1:03 AM78.8 °F75.2 °F89 %29.83 in10.0 miENE (70°)11.5 mphScattered Clouds
1:18 AM78.8 °F77.0 °F94 %29.82 in10.0 miENE (60°)12.7 mphMostly Cloudy
1:23 AM78.8 °F77.0 °F94 %29.82 in10.0 miENE (60°)11.5 mphScattered Clouds
1:28 AM78.8 °F77.0 °F94 %29.82 in10.0 miENE (60°)13.8 mphMostly Cloudy
1:48 AM78.8 °F75.2 °F89 %29.81 in10.0 miENE (70°)13.8 mphScattered Clouds
1:53 AM78.8 °F75.2 °F89 %29.81 in10.0 miENE (60°)13.8 mphMostly Cloudy
1:58 AM79.0 °F76.1 °F91 %29.78 in10.0 miENE (70°)12.7 mphMostly Cloudy
2:03 AM78.8 °F75.2 °F89 %29.81 in10.0 miENE (70°)11.5 mphMostly Cloudy
2:08 AM78.8 °F77.0 °F94 %29.80 in10.0 miENE (70°)13.8 mphScattered Clouds
2:29 AM78.8 °F77.0 °F94 %29.79 in10.0 miNE (50°)15.0 mphRainLight Rain
2:39 AM78.8 °F75.2 °F89 %29.79 in10.0 miENE (60°)12.7 mphPartly Cloudy
2:49 AM78.8 °F77.0 °F94 %29.79 in10.0 miENE (60°)15.0 mphMostly Cloudy
2:54 AM78.8 °F77.0 °F94 %29.78 in10.0 miENE (60°)12.7 mphMostly Cloudy
2:58 AM79.0 °F76.3 °F91 %29.75 in10.0 miENE (70°)12.7 mph0.00 inMostly Cloudy
3:03 AM78.8 °F77.0 °F94 %29.78 in10.0 miENE (60°)13.8 mphScattered Clouds
3:08 AM78.8 °F77.0 °F94 %29.78 in10.0 miNE (50°)13.8 mphMostly Cloudy
3:23 AM78.8 °F77.0 °F94 %29.78 in10.0 miENE (70°)17.3 mphMostly Cloudy
3:48 AM78.8 °F77.0 °F94 %29.78 in10.0 miENE (70°)15.0 mphMostly Cloudy
3:53 AM78.8 °F75.2 °F89 %29.77 in10.0 miENE (70°)15.0 mphScattered Clouds
3:58 AM78.3 °F75.7 °F92 %29.74 in10.0 miENE (70°)12.7 mphScattered Clouds
4:03 AM78.8 °F77.0 °F94 %29.77 in10.0 miENE (70°)13.8 mphMostly Cloudy
4:13 AM78.8 °F77.0 °F94 %29.77 in10.0 miENE (70°)13.8 mphMostly Cloudy
4:18 AM78.8 °F77.0 °F94 %29.77 in10.0 miENE (70°)13.8 mphMostly Cloudy
4:58 AM79.0 °F76.5 °F92 %29.75 in10.0 miENE (70°)13.8 mphMostly Cloudy
5:33 AM78.8 °F77.0 °F94 %29.78 in10.0 miENE (60°)16.1 mphMostly Cloudy
5:38 AM78.8 °F75.2 °F89 %29.79 in10.0 miENE (70°)16.1 mphMostly Cloudy
5:53 AM78.8 °F77.0 °F94 %29.79 in10.0 miENE (60°)13.8 mphMostly Cloudy
5:58 AM79.2 °F76.6 °F92 %29.76 in10.0 miENE (60°)16.1 mphMostly Cloudy
6:13 AM78.8 °F77.0 °F94 %29.80 in10.0 miENE (60°)15.0 mphOvercast
6:24 AM78.8 °F77.0 °F94 %29.80 in9.0 miENE (70°)20.7 mphRainRain
6:39 AM78.8 °F77.0 °F94 %29.80 in10.0 miENE (70°)12.7 mphMostly Cloudy
6:44 AM78.8 °F77.0 °F94 %29.81 in10.0 miEast (80°)15.0 mphScattered Clouds
6:58 AM78.6 °F74.8 °F88 %29.78 in10.0 miENE (70°)12.7 mph0.01 inPartly Cloudy
7:53 AM80.6 °F77.0 °F89 %29.83 in10.0 miENE (70°)13.8 mphMostly Cloudy
7:58 AM80.6 °F76.8 °F88 %29.81 in10.0 miENE (70°)12.7 mphMostly Cloudy
8:38 AM82.4 °F77.0 °F84 %29.84 in10.0 miEast (80°)13.8 mphScattered Clouds
8:58 AM82.6 °F77.7 °F85 %29.81 in10.0 miEast (90°)16.1 mphScattered Clouds
9:23 AM82.4 °F77.0 °F84 %29.85 in10.0 miENE (70°)15.0 mphMostly Cloudy
9:33 AM82.4 °F77.0 °F84 %29.85 in10.0 miENE (70°)12.7 mphScattered Clouds
9:58 AM84.9 °F77.0 °F77 %29.81 in10.0 miEast (90°)15.0 mphMostly Cloudy
10:03 AM84.2 °F77.0 °F79 %29.84 in10.0 miEast (100°)15.0 mphMostly Cloudy
10:33 AM84.2 °F77.0 °F79 %29.84 in10.0 miEast (80°)13.8 mphScattered Clouds
10:38 AM84.2 °F77.0 °F79 %29.84 in10.0 miENE (70°)13.8 mphMostly Cloudy
10:56 AM84.2 °F77.0 °F79 %29.83 in9.0 miENE (60°)13.8 mphRainLight Rain
10:58 AM84.2 °F77.0 °F79 %29.81 in9.0 miENE (60°)12.7 mphRainLight Rain
11:08 AM84.2 °F77.0 °F79 %29.83 in10.0 miEast (80°)12.7 mphMostly Cloudy
11:28 AM84.2 °F77.0 °F79 %29.82 in10.0 miENE (70°)10.4 mphMostly Cloudy
11:58 AM84.6 °F77.4 °F79 %29.78 in10.0 miEast (80°)12.7 mph0.00 inMostly Cloudy
12:28 PM86.0 °F77.0 °F74 %29.80 in10.0 miEast (80°)15.0 mphOvercast
12:38 PM86.0 °F77.0 °F74 %29.80 in10.0 miEast (80°)13.8 mph19.6 mphMostly Cloudy
12:58 PM85.1 °F77.7 °F78 %29.77 in10.0 miENE (70°)13.8 mphMostly Cloudy
1:48 PM84.2 °F77.0 °F79 %29.78 in10.0 miEast (80°)11.5 mphMostly Cloudy
1:53 PM84.2 °F77.0 °F79 %29.78 in10.0 miEast (80°)16.1 mphMostly Cloudy
1:58 PM84.4 °F76.8 °F78 %29.75 in10.0 miENE (60°)16.1 mphMostly Cloudy
2:13 PM84.2 °F77.0 °F79 %29.78 in10.0 miENE (70°)16.1 mphMostly Cloudy
2:28 PM84.2 °F77.0 °F79 %29.78 in10.0 miEast (80°)15.0 mphScattered Clouds
2:38 PM82.4 °F77.0 °F84 %29.78 in10.0 miEast (80°)15.0 mphScattered Clouds
2:58 PM82.0 °F76.5 °F83 %29.74 in10.0 miEast (80°)12.7 mphScattered Clouds
3:33 PM82.4 °F77.0 °F84 %29.76 in10.0 miEast (90°)12.7 mphMostly Cloudy
3:53 PM82.4 °F77.0 °F84 %29.76 in10.0 miEast (80°)12.7 mphScattered Clouds
3:58 PM81.9 °F76.1 °F83 %29.73 in10.0 miENE (70°)11.5 mphScattered Clouds
4:43 PM82.4 °F77.0 °F84 %29.76 in10.0 miENE (70°)10.4 mphMostly Cloudy
4:58 PM81.7 °F76.1 °F83 %29.73 in10.0 miENE (70°)12.7 mphOvercast
5:13 PM80.6 °F75.2 °F84 %29.76 in10.0 miENE (70°)12.7 mphMostly Cloudy
5:18 PM80.6 °F75.2 °F84 %29.76 in10.0 miENE (60°)11.5 mphScattered Clouds
5:58 PM80.8 °F76.3 °F86 %29.74 in10.0 miENE (70°)10.4 mphClear
6:28 PM80.6 °F77.0 °F89 %29.78 in10.0 miENE (60°)12.7 mphMostly Cloudy
6:53 PM80.6 °F77.0 °F89 %29.80 in10.0 miENE (60°)13.8 mphOvercast
6:58 PM80.4 °F77.0 °F89 %29.77 in10.0 miENE (60°)12.7 mphOvercast
7:08 PM80.6 °F77.0 °F89 %29.80 in10.0 miENE (60°)12.7 mphMostly Cloudy
7:33 PM80.6 °F77.0 °F89 %29.81 in10.0 miENE (60°)13.8 mphOvercast
7:43 PM80.6 °F77.0 °F89 %29.81 in10.0 miENE (60°)12.7 mphMostly Cloudy
7:53 PM80.6 °F77.0 °F89 %29.81 in10.0 miENE (60°)13.8 mphMostly Cloudy
7:58 PM80.4 °F77.0 °F89 %29.78 in10.0 miENE (60°)12.7 mphMostly Cloudy
8:23 PM80.6 °F77.0 °F89 %29.82 in10.0 miENE (70°)11.5 mphScattered Clouds
8:28 PM80.6 °F77.0 °F89 %29.82 in10.0 miENE (60°)12.7 mphMostly Cloudy
8:58 PM80.2 °F77.0 °F90 %29.81 in10.0 miENE (70°)11.5 mphMostly Cloudy
9:24 PM80.6 °F77.0 °F89 %29.83 in10.0 miENE (60°)15.0 mphRainLight Rain
9:29 PM80.6 °F78.8 °F94 %29.83 in10.0 miENE (60°)13.8 mphRainLight Rain
9:34 PM80.6 °F78.8 °F94 %29.83 in10.0 miENE (70°)11.5 mphLight Drizzle
9:36 PM80.6 °F77.0 °F89 %29.83 in10.0 miENE (70°)12.7 mphMostly Cloudy
9:41 PM80.6 °F77.0 °F89 %29.83 in10.0 miENE (60°)12.7 mphOvercast
9:51 PM80.6 °F78.8 °F94 %29.84 in10.0 miENE (70°)11.5 mphMostly Cloudy
9:58 PM79.5 °F77.7 °F94 %29.81 in10.0 miENE (70°)11.5 mph0.00 inMostly Cloudy
10:08 PM78.8 °F77.0 °F94 %29.84 in10.0 miENE (70°)10.4 mphMostly Cloudy
10:18 PM78.8 °F77.0 °F94 %29.84 in10.0 miENE (70°)9.2 mphMostly Cloudy
10:28 PM78.8 °F77.0 °F94 %29.84 in10.0 miENE (60°)11.5 mphMostly Cloudy
10:33 PM80.6 °F77.0 °F89 %29.84 in10.0 miENE (60°)11.5 mphMostly Cloudy
10:43 PM80.6 °F77.0 °F89 %29.84 in10.0 miENE (60°)10.4 mphMostly Cloudy
10:48 PM80.6 °F77.0 °F89 %29.84 in10.0 miENE (60°)12.7 mphMostly Cloudy
10:53 PM80.6 °F77.0 °F89 %29.84 in10.0 miENE (60°)11.5 mphMostly Cloudy
10:58 PM80.1 °F77.9 °F93 %29.81 in10.0 miENE (60°)12.7 mphMostly Cloudy
11:33 PM80.6 °F77.0 °F89 %29.83 in10.0 miENE (60°)11.5 mphMostly Cloudy
11:38 PM80.6 °F77.0 °F89 %29.83 in10.0 miENE (60°)10.4 mphOvercast
11:48 PM80.6 °F77.0 °F89 %29.83 in10.0 miENE (70°)10.4 mphMostly Cloudy
11:58 PM78.8 °F77.0 °F94 %29.81 in10.0 miENE (60°)9.2 mphScattered Clouds
11:59 PM78.8 °F77.0 °F94 %29.83 in10.0 miENE (60°)11.5 mphLight Drizzle
Hourly data recorded from PGUA, located miles away from Umatac, Guam







STORIES FROM OUR PARTNERS